Location: Newark
(15.4608°S, 41.1635°W)
Time: 09:12:38
(UTC+00:00)

Vanguard 3 - Pass Details

Date: 05 August 2021
Orbit: 510 x 3260 km, 33.3° (Epoch: 22 September)

Event Time Altitude Azimuth Distance (km) Brightness Sun altitude
Rises 03:38:58 0° 316° (NW) 7,059 11.9 -78.3°
Enters shadow 03:39:01 - 317° (NW) 7,049 11.9 -78.3°
Reaches altitude 10° 03:44:18 10° 321° (NW) 5,817 - -77.1°
Maximum altitude 04:00:20 53° 32° (NNE) 2,498 - -73.2°
Drops below altitude 10° 04:09:50 10° 105° (ESE) 3,597 - -71.0°
Sets 04:12:19 0° 110° (ESE) 4,280 - -70.4°
